| time (UTC) | temp C | wind direction | speed KPH | gust KPH | rain 1hr cm | rain 24hr cm | rain mn cm | humidity % | barometer mb |
| 20260507095046 | 16 | 0 | 33.8 | 35.4 | 0.00 | 0.00 | 0.00 | 90 | 1019.5 |
| 20260507094042 | 16 | 7 | 30.6 | 45.1 | 0.00 | 0.00 | 0.00 | 90 | 1019.5 |
| 20260507093041 | 16 | 8 | 32.2 | 43.5 | 0.00 | 0.00 | 0.00 | 90 | 1019.4 |
| 20260507092037 | 16 | 349 | 30.6 | 45.1 | 0.00 | 0.00 | 0.00 | 90 | 1019.3 |
| 20260507091032 | 16 | 351 | 30.6 | 49.9 | 0.00 | 0.00 | 0.00 | 89 | 1019.3 |
| 20260507090028 | 16 | 0 | 29.0 | 37.0 | 0.00 | 0.00 | 0.00 | 86 | 1019.3 |
| 20260507085025 | 16 | 348 | 29.0 | 45.1 | 0.00 | 0.00 | 0.00 | 84 | 1019.2 |
| 20260507084045 | 17 | 359 | 32.2 | 49.9 | 0.00 | 0.00 | 0.00 | 83 | 1019.1 |
| 20260507083019 | 17 | 357 | 37.0 | 57.9 | 0.00 | 0.00 | 0.00 | 83 | 1019.1 |
| 20260507082135 | 17 | 339 | 35.4 | 53.1 | 0.00 | 0.00 | 0.00 | 83 | 1019.1 |
| 20260507081111 | 17 | 355 | 30.6 | 46.7 | 0.00 | 0.00 | 0.00 | 83 | 1019.1 |
| 20260507080110 | 17 | 0 | 33.8 | 49.9 | 0.00 | 0.00 | 0.00 | 83 | 1019.3 |
| 20260507075106 | 17 | 339 | 33.8 | 53.1 | 0.00 | 0.00 | 0.00 | 83 | 1019.4 |
| 20260507074101 | 17 | 1 | 32.2 | 45.1 | 0.00 | 0.00 | 0.00 | 83 | 1019.4 |
| 20260507073057 | 17 | 1 | 38.6 | 54.7 | 0.00 | 0.00 | 0.00 | 82 | 1019.4 |
| 20260507072056 | 17 | 351 | 33.8 | 46.7 | 0.00 | 0.00 | 0.00 | 81 | 1019.3 |
| 20260507071050 | 17 | 351 | 35.4 | 49.9 | 0.00 | 0.00 | 0.00 | 81 | 1019.3 |
| 20260507070047 | 17 | 353 | 32.2 | 48.3 | 0.00 | 0.00 | 0.00 | 80 | 1019.2 |
| 20260507065103 | 17 | 6 | 33.8 | 53.1 | 0.00 | 0.00 | 0.00 | 80 | 1019.0 |
| 20260507064040 | 17 | 16 | 33.8 | 54.7 | 0.00 | 0.00 | 0.00 | 80 | 1018.9 |
| 20260507063036 | 17 | 359 | 33.8 | 51.5 | 0.00 | 0.00 | 0.00 | 80 | 1019.0 |
| 20260507062055 | 17 | 350 | 33.8 | 54.7 | 0.00 | 0.00 | 0.00 | 81 | 1018.9 |
| 20260507061031 | 17 | 354 | 32.2 | 46.7 | 0.00 | 0.00 | 0.00 | 82 | 1018.9 |
| 20260507060026 | 17 | 7 | 33.8 | 46.7 | 0.00 | 0.00 | 0.00 | 82 | 1018.9 |
| 20260507055025 | 17 | 355 | 32.2 | 46.7 | 0.00 | 0.00 | 0.00 | 82 | 1018.9 |
| 20260507054019 | 17 | 337 | 38.6 | 54.7 | 0.00 | 0.00 | 0.00 | 81 | 1018.9 |
| 20260507053015 | 17 | 351 | 32.2 | 49.9 | 0.00 | 0.00 | 0.00 | 82 | 1019.0 |
| 20260507052112 | 17 | 349 | 30.6 | 43.5 | 0.00 | 0.00 | 0.00 | 82 | 1019.1 |
| 20260507051110 | 17 | 348 | 32.2 | 48.3 | 0.00 | 0.00 | 0.00 | 81 | 1019.1 |
| 20260507050107 | 17 | 345 | 27.4 | 38.6 | 0.00 | 0.00 | 0.00 | 81 | 1019.3 |
| 20260507045124 | 17 | 346 | 33.8 | 48.3 | 0.00 | 0.00 | 0.00 | 80 | 1019.2 |
| 20260507044058 | 17 | 360 | 33.8 | 51.5 | 0.00 | 0.00 | 0.00 | 80 | 1019.2 |
| 20260507043054 | 17 | 341 | 32.2 | 48.3 | 0.00 | 0.00 | 0.00 | 78 | 1019.3 |
| 20260507042051 | 17 | 5 | 33.8 | 48.3 | 0.00 | 0.00 | 0.00 | 76 | 1019.4 |
| 20260507041047 | 17 | 352 | 37.0 | 54.7 | 0.00 | 0.00 | 0.00 | 73 | 1019.5 |
| 20260507040044 | 17 | 0 | 33.8 | 48.3 | 0.00 | 0.00 | 0.00 | 73 | 1019.6 |
| 20260507035102 | 17 | 357 | 35.4 | 49.9 | 0.00 | 0.00 | 0.00 | 71 | 1019.6 |
| 20260507034037 | 17 | 356 | 32.2 | 48.3 | 0.00 | 0.00 | 0.00 | 73 | 1019.9 |
| 20260507033033 | 17 | 356 | 32.2 | 51.5 | 0.00 | 0.00 | 0.00 | 73 | 1020.0 |
| 20260507032031 | 17 | 3 | 33.8 | 56.3 | 0.00 | 0.00 | 0.00 | 71 | 1019.9 |
| 20260507031028 | 17 | 354 | 33.8 | 56.3 | 0.00 | 0.00 | 0.00 | 70 | 1020.0 |
| 20260507030043 | 17 | 345 | 32.2 | 48.3 | 0.00 | 0.00 | 0.00 | 70 | 1020.1 |
| 20260507025020 | 17 | 1 | 33.8 | 46.7 | 0.00 | 0.00 | 0.00 | 69 | 1020.3 |
| 20260507024017 | 17 | 351 | 30.6 | 48.3 | 0.00 | 0.00 | 0.00 | 69 | 1020.5 |
| 20260507023134 | 17 | 356 | 37.0 | 57.9 | 0.00 | 0.00 | 0.00 | 70 | 1020.7 |
| 20260507022111 | 17 | 347 | 33.8 | 54.7 | 0.00 | 0.00 | 0.00 | 71 | 1020.9 |
| 20260507021106 | 17 | 356 | 35.4 | 46.7 | 0.00 | 0.00 | 0.00 | 71 | 1021.0 |
| 20260507015059 | 17 | 354 | 32.2 | 57.9 | 0.00 | 0.00 | 0.00 | 71 | 1021.3 |
| 20260507014055 | 17 | 349 | 30.6 | 46.7 | 0.00 | 0.00 | 0.00 | 73 | 1021.4 |
| 20260507013112 | 17 | 353 | 33.8 | 48.3 | 0.00 | 0.00 | 0.00 | 73 | 1021.4 |
| 20260507012048 | 17 | 341 | 32.2 | 46.7 | 0.00 | 0.00 | 0.00 | 74 | 1021.4 |
| 20260507011046 | 17 | 356 | 33.8 | 54.7 | 0.00 | 0.00 | 0.00 | 72 | 1021.5 |
| 20260507005037 | 17 | 354 | 38.6 | 54.7 | 0.00 | 0.00 | 0.00 | 71 | 1022.1 |
| 20260507004033 | 17 | 9 | 35.4 | 49.9 | 0.00 | 0.00 | 0.00 | 71 | 1022.1 |
| 20260507003031 | 17 | 4 | 33.8 | 59.5 | 0.00 | 0.00 | 0.00 | 73 | 1022.4 |
| 20260507002026 | 17 | 359 | 33.8 | 46.7 | 0.00 | 0.00 | 0.00 | 72 | 1022.6 |
| 20260507001024 | 17 | 345 | 33.8 | 53.1 | 0.00 | 0.00 | 0.00 | 71 | 1022.5 |
| 20260507000019 | 17 | 348 | 33.8 | 54.7 | 0.00 | 0.00 | 0.00 | 71 | 1022.5 |
| 20260506235101 | 17 | 357 | 33.8 | 53.1 | 0.00 | 0.00 | 0.00 | 71 | 1022.5 |
| 20260506234114 | 17 | 347 | 32.2 | 51.5 | 0.00 | 0.00 | 0.00 | 73 | 1022.6 |
| 20260506233109 | 17 | 359 | 30.6 | 46.7 | 0.00 | 0.00 | 0.00 | 74 | 1022.6 |
| 20260506232106 | 17 | 343 | 33.8 | 48.3 | 0.00 | 0.00 | 0.00 | 76 | 1022.7 |
| 20260506231103 | 17 | 358 | 30.6 | 45.1 | 0.00 | 0.00 | 0.00 | 77 | 1022.7 |
| 20260506230058 | 17 | 354 | 33.8 | 53.1 | 0.00 | 0.00 | 0.00 | 78 | 1022.7 |
| 20260506225115 | 17 | 345 | 29.0 | 54.7 | 0.00 | 0.00 | 0.00 | 79 | 1022.9 |
| 20260506224052 | 16 | 4 | 32.2 | 45.1 | 0.00 | 0.00 | 0.00 | 80 | 1023.0 |
| 20260506223110 | 17 | 8 | 30.6 | 45.1 | 0.00 | 0.00 | 0.00 | 81 | 1023.1 |
| 20260506222046 | 16 | 356 | 29.0 | 41.8 | 0.00 | 0.00 | 0.00 | 82 | 1023.3 |
| 20260506221042 | 16 | 356 | 32.2 | 45.1 | 0.00 | 0.00 | 0.00 | 83 | 1023.3 |
| 20260506220038 | 16 | 0 | 29.0 | 46.7 | 0.00 | 0.00 | 0.00 | 84 | 1023.4 |
| 20260506215034 | 16 | 347 | 29.0 | 38.6 | 0.00 | 0.00 | 0.00 | 85 | 1023.4 |
| 20260506214032 | 16 | 5 | 32.2 | 48.3 | 0.00 | 0.00 | 0.00 | 85 | 1023.4 |
| 20260506213027 | 16 | 13 | 29.0 | 48.3 | 0.00 | 0.00 | 0.00 | 86 | 1023.6 |
| 20260506212025 | 16 | 5 | 29.0 | 43.5 | 0.00 | 0.00 | 0.00 | 87 | 1023.7 |
| 20260506211022 | 16 | 359 | 27.4 | 41.8 | 0.00 | 0.00 | 0.00 | 88 | 1023.8 |
| 20260506210016 | 16 | 17 | 27.4 | 45.1 | 0.00 | 0.00 | 0.00 | 89 | 1023.8 |
| 20260506205134 | 16 | 0 | 22.5 | 33.8 | 0.00 | 0.00 | 0.00 | 90 | 1023.9 |
| 20260506204110 | 16 | 6 | 25.7 | 37.0 | 0.00 | 0.00 | 0.00 | 91 | 1023.9 |
| 20260506203108 | 16 | 354 | 27.4 | 43.5 | 0.00 | 0.00 | 0.00 | 91 | 1024.0 |
| 20260506202103 | 16 | 344 | 25.7 | 33.8 | 0.00 | 0.00 | 0.00 | 91 | 1024.0 |
| 20260506201059 | 15 | 9 | 25.7 | 38.6 | 0.00 | 0.00 | 0.00 | 91 | 1024.0 |
| 20260506200057 | 15 | 360 | 27.4 | 37.0 | 0.00 | 0.00 | 0.00 | 92 | 1023.9 |
| 20260506195054 | 15 | 353 | 29.0 | 38.6 | 0.00 | 0.00 | 0.00 | 92 | 1023.9 |
| 20260506194049 | 15 | 1 | 25.7 | 33.8 | 0.00 | 0.00 | 0.00 | 92 | 1023.8 |
| 20260506193045 | 15 | 343 | 27.4 | 35.4 | 0.00 | 0.00 | 0.00 | 92 | 1023.8 |
| 20260506192044 | 15 | 356 | 25.7 | 38.6 | 0.00 | 0.00 | 0.00 | 92 | 1023.9 |
| 20260506191038 | 15 | 343 | 25.7 | 40.2 | 0.00 | 0.00 | 0.00 | 91 | 1023.9 |
| 20260506190035 | 15 | 359 | 24.1 | 37.0 | 0.00 | 0.00 | 0.00 | 90 | 1023.9 |
| 20260506185033 | 15 | 343 | 25.7 | 38.6 | 0.00 | 0.00 | 0.00 | 89 | 1024.0 |
| 20260506184048 | 15 | 351 | 27.4 | 37.0 | 0.00 | 0.00 | 0.00 | 88 | 1024.1 |
| 20260506183025 | 15 | 18 | 25.7 | 41.8 | 0.00 | 0.00 | 0.00 | 88 | 1024.1 |
| 20260506182041 | 15 | 312 | 25.7 | 33.8 | 0.00 | 0.00 | 0.00 | 88 | 1024.2 |
| 20260506181018 | 15 | 347 | 24.1 | 37.0 | 0.00 | 0.00 | 0.00 | 87 | 1024.3 |
| 20260506180117 | 15 | 8 | 24.1 | 33.8 | 0.00 | 0.00 | 0.00 | 87 | 1024.2 |
| 20260506175111 | 15 | 9 | 25.7 | 33.8 | 0.00 | 0.00 | 0.00 | 86 | 1024.2 |
| 20260506174110 | 15 | 348 | 25.7 | 37.0 | 0.00 | 0.00 | 0.00 | 86 | 1024.3 |
| 20260506173105 | 15 | 356 | 27.4 | 37.0 | 0.00 | 0.00 | 0.00 | 85 | 1024.4 |
| 20260506172100 | 15 | 8 | 30.6 | 45.1 | 0.00 | 0.00 | 0.00 | 86 | 1024.4 |
| 20260506171119 | 15 | 355 | 29.0 | 48.3 | 0.00 | 0.00 | 0.00 | 87 | 1024.4 |
| 20260506170053 | 15 | 355 | 24.1 | 41.8 | 0.00 | 0.00 | 0.00 | 88 | 1024.3 |
| 20260506165049 | 15 | 353 | 25.7 | 37.0 | 0.00 | 0.00 | 0.00 | 88 | 1024.2 |
| 20260506164047 | 15 | 351 | 24.1 | 33.8 | 0.00 | 0.00 | 0.00 | 87 | 1024.3 |
| 20260506163042 | 15 | 7 | 20.9 | 32.2 | 0.00 | 0.00 | 0.00 | 86 | 1024.4 |
| 20260506162039 | 15 | 342 | 22.5 | 35.4 | 0.00 | 0.00 | 0.00 | 86 | 1024.5 |
| 20260506161035 | 15 | 360 | 22.5 | 37.0 | 0.00 | 0.00 | 0.00 | 85 | 1024.8 |
| 20260506160034 | 16 | 16 | 24.1 | 37.0 | 0.00 | 0.00 | 0.00 | 86 | 1025.0 |
| 20260506155028 | 15 | 8 | 24.1 | 35.4 | 0.00 | 0.00 | 0.00 | 86 | 1025.1 |
| 20260506154106 | 15 | 3 | 22.5 | 33.8 | 0.00 | 0.00 | 0.00 | 86 | 1025.2 |
| 20260506153023 | 15 | 354 | 24.1 | 38.6 | 0.00 | 0.00 | 0.00 | 87 | 1025.3 |
| 20260506152018 | 15 | 350 | 24.1 | 40.2 | 0.00 | 0.00 | 0.00 | 88 | 1025.5 |
| 20260506151116 | 15 | 3 | 22.5 | 37.0 | 0.00 | 0.00 | 0.00 | 87 | 1025.6 |
| 20260506150111 | 15 | 353 | 20.9 | 29.0 | 0.00 | 0.00 | 0.00 | 86 | 1025.7 |
| 20260506145109 | 15 | 353 | 22.5 | 37.0 | 0.00 | 0.00 | 0.00 | 85 | 1026.0 |
| 20260506144124 | 16 | 8 | 22.5 | 35.4 | 0.00 | 0.00 | 0.00 | 85 | 1026.1 |
| 20260506143101 | 16 | 14 | 25.7 | 43.5 | 0.00 | 0.00 | 0.00 | 84 | 1026.2 |
| 20260506142059 | 16 | 353 | 24.1 | 37.0 | 0.00 | 0.00 | 0.00 | 84 | 1026.2 |
| 20260506141116 | 16 | 346 | 24.1 | 33.8 | 0.00 | 0.00 | 0.00 | 84 | 1026.4 |
| 20260506140050 | 16 | 356 | 22.5 | 43.5 | 0.00 | 0.00 | 0.00 | 84 | 1026.4 |
| 20260506135046 | 16 | 17 | 27.4 | 38.6 | 0.00 | 0.00 | 0.00 | 84 | 1026.4 |
| 20260506134043 | 16 | 357 | 22.5 | 35.4 | 0.00 | 0.00 | 0.00 | 85 | 1026.4 |
| 20260506133100 | 16 | 14 | 25.7 | 41.8 | 0.00 | 0.00 | 0.00 | 86 | 1026.4 |
| 20260506132057 | 16 | 12 | 24.1 | 37.0 | 0.00 | 0.00 | 0.00 | 86 | 1026.4 |
| 20260506131031 | 16 | 356 | 24.1 | 37.0 | 0.00 | 0.00 | 0.00 | 86 | 1026.5 |
| 20260506130028 | 16 | 347 | 19.3 | 33.8 | 0.00 | 0.00 | 0.00 | 87 | 1026.4 |
| 20260506125024 | 16 | 9 | 25.7 | 38.6 | 0.00 | 0.00 | 0.00 | 87 | 1026.6 |
| 20260506124021 | 16 | 346 | 17.7 | 29.0 | 0.00 | 0.00 | 0.00 | 87 | 1026.7 |
| 20260506123017 | 16 | 342 | 22.5 | 33.8 | 0.00 | 0.00 | 0.00 | 87 | 1026.7 |
| 20260506122116 | 16 | 340 | 20.9 | 27.4 | 0.00 | 0.00 | 0.00 | 87 | 1026.7 |
| 20260506121111 | 16 | 359 | 24.1 | 37.0 | 0.00 | 0.00 | 0.00 | 86 | 1026.8 |
| 20260506120109 | 16 | 5 | 20.9 | 30.6 | 0.00 | 0.00 | 0.00 | 86 | 1026.7 |
| 20260506115104 | 16 | 5 | 19.3 | 29.0 | 0.00 | 0.00 | 0.00 | 86 | 1026.7 |
| 20260506114102 | 16 | 0 | 20.9 | 32.2 | 0.00 | 0.00 | 0.00 | 85 | 1026.7 |
| 20260506113058 | 16 | 8 | 22.5 | 37.0 | 0.00 | 0.00 | 0.00 | 86 | 1026.7 |
| 20260506112054 | 16 | 359 | 19.3 | 33.8 | 0.00 | 0.00 | 0.00 | 86 | 1026.7 |
| 20260506111051 | 16 | 356 | 20.9 | 32.2 | 0.00 | 0.00 | 0.00 | 86 | 1026.8 |
| 20260506110046 | 15 | 335 | 16.1 | 25.7 | 0.00 | 0.00 | 0.00 | 86 | 1026.8 |
| 20260506105043 | 15 | 23 | 17.7 | 25.7 | 0.00 | 0.00 | 0.00 | 86 | 1026.8 |
| 20260506104039 | 15 | 5 | 16.1 | 25.7 | 0.00 | 0.00 | 0.00 | 86 | 1026.9 |
| 20260506103035 | 15 | 351 | 16.1 | 27.4 | 0.00 | 0.00 | 0.00 | 85 | 1026.8 |
| 20260506102034 | 15 | 12 | 16.1 | 22.5 | 0.00 | 0.00 | 0.00 | 85 | 1026.8 |
| 20260506101049 | 15 | 348 | 14.5 | 20.9 | 0.00 | 0.00 | 0.00 | 85 | 1026.8 |
| 20260506100025 | 15 | 2 | 16.1 | 24.1 | 0.00 | 0.00 | 0.00 | 84 | 1026.7 |